sat.trackr.live / text

‹ back to catalog

STARLINK-34375

NORAD 64477 · 2025-133F

PAYLOAD ACTIVE UNKNOWN

§ Identity

Operator
Country
US
Launch date
2025-06-23
Launch site
AFETR
Launch vehicle
Mass (kg)
RCS (m²)

Purposes: comms

External: N2YO · Heavens-Above · Gunter

§ Orbital elements

Epoch: 2026-05-25T04:26:14.834688Z

Period
93.79 min
Inclination
53.1596°
Eccentricity
0.0001100
Mean motion
15.35410268 rev/d
Perigee alt
458.9 km
Apogee alt
460.5 km
Semi-major
6,837.8 km
B*
6.7030e-4
RAAN
119.1149°
Arg perigee
55.4030°
Mean anomaly
304.7077°
Rev number
5,293

§ Raw data

STARLINK-343751 64477U 25133F   26145.18489392  .00023080  00000+0  67030-3 0  99952 64477  53.1596 119.1149 0001100  55.4030 304.7077 15.35410268 52936

JSON: /api/v1/satellites/64477 · /tle

For live sub-satellite position, see the globe view (requires WebGL).

§ Visibility from observer

Set your observer location to see the next 7 days of passes ≥ 10°. The values pass through the URL so the page stays shareable.

No JS? Fill the form by hand. The geolocation button needs JavaScript.